Flag for Norway Weather past 2 weeks in Ålesund, Norway

41 °F

Passing clouds.

Feels Like: 33 °F
Forecast: 42 / 54 °F
Wind: 16 mph from Southwest

Location: Alesund / Vigra

Current Time: Nov 26, 2015 at 9:01:55 AM

Latest Report: Nov 26, 2015 at 8:20 AM

Visibility: N/A

Pressure: 29.59 "Hg

Humidity: 76%

Dew point: 34 °F

Location of ÅlesundLocation

Historic Weather in Ålesund — Graph


Ålesund temperature yesterday

Maximum temperature yesterday: 45 °F (at 12:50 AM)
Minimum temperature yesterday: 37 °F (at 6:20 PM)
Average temperature yesterday: 40 °F

Past Weeks' High & Low Weather Summary

High52 °F (Nov 13, 2:50 AM)100% (Nov 15, 8:20 AM)29.92 "Hg (Nov 15, 8:20 AM)
Low28 °F (Nov 21, 9:50 PM)46% (Nov 16, 7:50 AM)28.97 "Hg (Nov 16, 1:20 PM)
Average42 °F80%29.42 "Hg
* Reported Nov 11 7:20 AM — Nov 26 7:50 AM, Ålesund, Weather by CustomWeather, © 2015

Note: Actual official high and low records may vary slightly from our data, if they occured in-between our weather recording intervals... More about our weather records


Ålesund weather history for previous 24 hours

Time TempWeatherWind HumidityBarometerVisibility
7:50 AM
Thu, Nov 26
41 °FPassing clouds.14 mph70%29.59 "HgN/A
7:20 AM39 °FRain showers. Passing clouds.20 mph87%29.62 "HgN/A
6:50 AM41 °FPassing clouds.13 mph76%29.62 "HgN/A
6:20 AM39 °FScattered showers. Partly cloudy.17 mph81%29.62 "HgN/A
5:50 AM41 °FScattered showers. Passing clouds.17 mph70%29.62 "HgN/A
5:20 AM39 °FPassing clouds.13 mph81%29.65 "HgN/A
4:20 AM39 °FPartly cloudy.10 mph81%29.65 "HgN/A
3:50 AM39 °FPassing clouds.18 mph81%29.65 "HgN/A
3:20 AM41 °FMostly cloudy.9 mph70%29.65 "HgN/A
2:50 AM41 °FPassing clouds.15 mph70%29.65 "HgN/A
1:50 AM39 °FPartly cloudy.16 mph81%29.62 "HgN/A
1:20 AM41 °FPassing clouds.13 mph76%29.62 "HgN/A
12:20 AM37 °FPassing clouds.9 mph87%29.59 "HgN/A
11:50 PM
Wed, Nov 25
39 °FLight rain. Partly cloudy.14 mph81%29.59 "HgN/A
11:20 PM39 °FPassing clouds.17 mph87%29.59 "HgN/A
10:50 PM39 °FScattered showers. Passing clouds.14 mph87%29.59 "HgN/A
10:20 PM39 °FScattered showers. Partly cloudy.13 mph81%29.59 "HgN/A
9:50 PM39 °FRain showers. Partly cloudy.12 mph81%29.56 "Hg5 mi
9:20 PM41 °FSprinkles. Passing clouds.9 mph81%29.56 "HgN/A
8:50 PM39 °FSprinkles. Passing clouds.12 mph81%29.56 "HgN/A
8:20 PM37 °FSprinkles. Passing clouds.17 mph87%29.53 "HgN/A
7:50 PM37 °FLight rain. Passing clouds.9 mph87%29.53 "HgN/A
7:20 PM37 °FScattered showers. Passing clouds.12 mph87%29.53 "HgN/A
6:50 PM39 °FSprinkles. Passing clouds.8 mph87%29.50 "HgN/A
6:20 PM37 °FScattered showers. Partly cloudy.6 mph87%29.50 "HgN/A
5:50 PM39 °FPartly cloudy.12 mph75%29.50 "HgN/A
5:20 PM39 °FScattered showers. Passing clouds.13 mph75%29.47 "HgN/A
4:50 PM39 °FSprinkles. Passing clouds.13 mph75%29.45 "HgN/A
4:20 PM39 °FScattered showers. Passing clouds.10 mph87%29.45 "HgN/A
3:50 PM41 °FScattered showers. Passing clouds.14 mph70%29.45 "HgN/A
3:20 PM41 °FPartly sunny.9 mph70%29.42 "HgN/A
2:50 PM41 °FScattered showers. Broken clouds.16 mph76%29.42 "HgN/A
2:20 PM41 °FScattered showers. Broken clouds.12 mph81%29.42 "HgN/A
1:50 PM41 °FBroken clouds.18 mph81%29.39 "HgN/A
1:20 PM39 °FRain showers. Broken clouds.12 mph87%29.39 "HgN/A
12:50 PM41 °FRain showers. Broken clouds.12 mph81%29.39 "HgN/A
12:20 PM39 °FLight rain. Broken clouds.15 mph87%29.36 "HgN/A
11:50 AM39 °FSprinkles. Partly sunny.18 mph87%29.36 "HgN/A
11:20 AM41 °FLight rain. Partly sunny.20 mph76%29.36 "HgN/A
10:50 AM43 °FScattered clouds.15 mph71%29.33 "HgN/A
10:20 AM41 °FScattered clouds.14 mph70%29.33 "HgN/A
9:50 AM41 °FScattered showers. Partly sunny.15 mph70%29.33 "HgN/A
9:20 AM41 °FPartly sunny.15 mph70%29.30 "HgN/A
Weather by CustomWeather, © 2015

See weather overviewHow to use our weather pages